DateTime,F1_A11,F1_S11,BsB_S11,BsG_S11,BsR_S11,BbsB_S11,BbsG_S11,BbsR_S11,BaB_A11,BaG_A11,BaR_A11,T_S11,U_S11,P_S11,T1_A11
2016-01-28T00:00:00Z,0000380,21000600,,,,,,,,,,25.3,00.0,0634.2,34.4
2016-01-28T00:01:00Z,0000380,21000600,,,,,,,,,,25.3,00.0,0634.2,34.4
2016-01-28T00:02:00Z,0000380,21000600,,,,,,,,,,25.2,00.0,0634.2,34.4
2016-01-28T00:03:00Z,0000380,61000600,,,,,,,,,,25.2,00.0,0634.2,34.4
2016-01-28T00:04:00Z,0000380,41000600,0001.51,0001.62,0001.02,0000.17,0000.38,0000.46,0000.01,0000.09,-000.03,25.3,00.0,0634.8,34.4
2016-01-28T00:05:00Z,0000380,01000600,0003.02,0001.41,0000.96,-000.05,0000.55,0000.20,0000.19,0000.18,0000.16,25.4,00.0,0634.8,34.4
2016-01-28T00:06:00Z,0000380,01000600,0002.62,0002.09,0001.10,0000.10,0000.13,0000.43,0000.03,0000.14,-000.00,25.5,00.0,0634.8,34.4
2016-01-28T00:07:00Z,0000380,01000600,0001.92,0002.52,0001.84,0000.30,-000.02,-000.02,0000.39,0000.29,0000.38,25.5,00.0,0634.8,34.4
2016-01-28T00:08:00Z,0000380,01000600,0002.52,0001.96,0001.07,-000.03,0000.13,0000.40,0000.19,0000.18,-000.13,25.5,00.0,0634.8,34.4
2016-01-28T00:09:00Z,0000380,01000600,0002.40,0001.13,0000.46,-000.35,0000.28,0000.08,0000.05,0000.09,0000.29,25.4,00.0,0634.8,34.4
2016-01-28T00:10:00Z,0000380,01000600,0002.67,0001.60,0001.41,0000.73,0000.33,0000.38,0000.34,0000.02,0000.14,25.4,00.0,0634.8,34.4
2016-01-28T00:11:00Z,0000380,01000600,0002.64,0001.62,0001.12,0000.20,0000.35,0000.25,0000.27,0000.29,0000.05,25.4,00.0,0634.8,34.4
2016-01-28T00:12:00Z,0000380,01000600,0002.44,0001.01,0000.92,0000.48,0000.20,0000.15,0000.08,0000.15,-000.07,25.3,00.0,0634.9,34.4
2016-01-28T00:13:00Z,0000380,01000600,0001.79,0002.00,0001.54,0000.33,0000.20,0000.18,0000.14,0000.07,0000.20,25.3,00.0,0634.9,34.4
2016-01-28T00:14:00Z,0000380,01000600,0002.23,0001.92,0000.66,0000.68,-000.05,0000.61,0000.22,0000.12,0000.28,25.3,00.0,0634.9,34.4
2016-01-28T00:15:00Z,0000380,01000600,0003.34,0001.94,0001.13,0000.13,0000.23,0000.03,0000.20,0000.12,0000.13,25.3,00.0,0634.9,34.4
2016-01-28T00:16:00Z,0000380,01000600,0001.83,0002.17,0001.34,0000.61,0000.51,0000.23,0000.22,0000.28,-000.06,25.3,00.0,0634.9,34.4
2016-01-28T00:17:00Z,0000380,01000600,0003.07,0001.71,0001.22,0000.58,0000.48,0000.53,-000.11,0000.11,0000.10,25.3,00.0,0634.9,34.4
2016-01-28T00:18:00Z,0000380,01000600,0002.65,0002.13,0000.56,0000.17,0000.40,0000.00,0000.21,0000.01,0000.07,25.3,00.0,0634.9,34.4
2016-01-28T00:19:00Z,0000380,01000600,0002.80,0001.98,0001.02,0000.25,0000.38,0000.48,0000.18,0000.12,0000.13,25.2,00.0,0634.9,34.4
2016-01-28T00:20:00Z,0000380,01000600,0002.26,0001.91,0001.00,0000.17,0000.45,-000.02,0000.13,0000.13,0000.22,25.3,00.0,0634.9,34.4
2016-01-28T00:21:00Z,0000380,01000600,0002.61,0001.37,0001.34,0000.36,0000.13,0000.35,-000.10,-000.05,-000.11,25.3,00.0,0634.9,34.4
2016-01-28T00:22:00Z,0000380,01000600,0003.07,0001.36,0001.09,-000.23,0000.33,0000.25,0000.35,0000.35,0000.25,25.3,00.0,0634.9,34.4
2016-01-28T00:23:00Z,0000380,01000600,0002.85,0001.79,0000.86,0000.75,0000.00,0000.43,0000.03,0000.14,0000.33,25.3,00.0,0634.9,34.4
2016-01-28T00:24:00Z,0000380,01000600,0001.91,0001.67,0001.55,0000.18,0000.58,0000.25,0000.19,0000.19,-000.03,25.3,00.0,0634.9,34.4
2016-01-28T00:25:00Z,0000380,01000600,0002.27,0001.80,0001.50,0000.33,-000.13,0000.10,0000.28,0000.14,0000.29,25.3,00.0,0634.9,34.4
2016-01-28T00:26:00Z,0000380,01000600,0002.54,0002.03,0000.77,0000.08,-000.10,0000.18,0000.35,0000.18,-000.06,25.3,00.0,0634.9,34.4
2016-01-28T00:27:00Z,0000380,01000600,0002.51,0001.66,0001.34,-000.03,0000.33,0000.22,0000.06,0000.20,-000.01,25.3,00.0,0634.9,34.4
2016-01-28T00:28:00Z,0000380,01000600,0001.99,0001.40,0001.67,0000.17,0000.13,0000.25,0000.20,0000.21,0000.38,25.3,00.0,0634.9,34.4
2016-01-28T00:29:00Z,0000380,01000600,0003.03,0001.66,0001.19,0000.27,0000.23,0000.13,0000.31,-000.01,0000.01,25.3,00.0,0635.0,34.4
2016-01-28T00:30:00Z,0000380,01000600,0002.08,0001.77,0001.24,-000.13,0000.48,0000.28,-000.16,0000.20,-000.01,25.3,00.0,0635.0,34.4
2016-01-28T00:31:00Z,0000380,01000600,0002.44,0002.22,0001.27,0001.03,0000.63,-000.10,0000.24,0000.36,0000.29,25.3,00.0,0635.0,34.4
2016-01-28T00:32:00Z,0000380,01000600,0003.12,0002.21,0000.93,0000.41,0000.59,0000.30,0000.22,-000.02,-000.13,25.2,00.0,0635.0,34.4
2016-01-28T00:33:00Z,0000380,01000600,0002.65,0002.46,0001.18,0000.51,0000.26,0000.25,-000.04,0000.01,0000.17,25.2,00.0,0635.0,34.4
2016-01-28T00:34:00Z,0000380,01000600,0003.74,0002.42,0001.30,0000.20,0000.12,0000.20,0000.07,-000.10,-000.15,25.2,00.0,0635.0,34.4
2016-01-28T00:35:00Z,0000380,01000600,0002.03,0001.66,0000.94,-000.56,-000.05,0000.46,0000.09,0000.28,0000.20,25.3,00.0,0634.9,34.4
2016-01-28T00:36:00Z,0000380,01000600,0002.90,0002.01,0000.97,0000.50,-000.05,0000.12,0000.27,0000.06,0000.18,25.3,00.0,0634.9,34.4
2016-01-28T00:37:00Z,0000380,01000600,0002.23,0002.24,0001.06,0000.40,0000.30,0000.55,0000.02,0000.14,0000.04,25.3,00.0,0634.9,34.4
2016-01-28T00:38:00Z,0000380,01000600,0003.36,0001.95,0001.23,-000.13,0000.26,0000.20,0000.19,0000.19,0000.40,25.4,00.0,0634.8,34.4
2016-01-28T00:39:00Z,0000380,01000600,0003.11,0001.48,0000.91,-000.02,0000.25,0000.33,0000.23,-000.01,0000.03,25.4,00.0,0634.8,34.4
2016-01-28T00:40:00Z,0000380,01000600,0002.55,0001.36,0001.29,0000.12,0000.18,0000.33,0000.20,0000.34,-000.06,25.4,00.0,0634.8,34.4
2016-01-28T00:41:00Z,0000380,01000600,0002.45,0001.16,0001.20,-000.02,0000.30,0000.17,0000.24,0000.06,0000.13,25.3,00.0,0634.8,34.4
2016-01-28T00:42:00Z,0000380,01000600,0001.41,0002.00,0001.11,0000.30,0000.66,0000.33,0000.13,0000.23,0000.42,25.3,00.0,0634.8,34.4
2016-01-28T00:43:00Z,0000380,01000600,0002.82,0002.44,0001.13,0000.12,0000.02,0000.27,0000.33,0000.28,0000.17,25.3,00.0,0634.8,34.4
2016-01-28T00:44:00Z,0000380,01000600,0002.12,0002.07,0001.94,0000.15,0000.31,0000.33,0000.13,0000.11,-000.26,25.3,00.0,0634.8,34.4
2016-01-28T00:45:00Z,0000380,01000600,0003.51,0002.10,0001.63,0000.46,0000.07,0000.23,0000.14,0000.25,0000.28,25.3,00.0,0634.8,34.4
2016-01-28T00:46:00Z,0000380,01000600,0002.08,0002.05,0001.38,0000.58,-000.12,0000.30,0000.19,0000.06,0000.15,25.3,00.0,0634.7,34.4
2016-01-28T00:47:00Z,0000380,01000600,0002.29,0002.06,0001.58,0000.23,0000.45,0000.12,0000.20,0000.07,0000.38,25.2,00.0,0634.7,34.4
2016-01-28T00:48:00Z,0000380,01000600,0003.03,0002.85,0001.31,0000.00,0000.08,-000.13,-000.03,-000.00,-000.38,25.2,00.0,0634.7,34.4
2016-01-28T00:49:00Z,0000380,01000600,0003.45,0001.93,0001.20,0000.63,0000.46,0000.58,0000.04,0000.07,0000.22,25.3,00.0,0634.7,34.4
2016-01-28T00:50:00Z,0000380,01000600,0002.64,0001.99,0001.41,0000.10,-000.08,0000.05,0000.12,0000.07,0000.25,25.3,00.0,0634.7,34.4
2016-01-28T00:51:00Z,0000380,01000600,0002.74,0002.37,0002.00,0000.55,0000.18,0000.43,0000.11,0000.32,0000.20,25.3,00.0,0634.7,34.4
2016-01-28T00:52:00Z,0000380,01000600,0002.14,0001.78,0001.72,0000.30,0000.10,0000.60,0000.03,0000.08,0000.11,25.3,00.0,0634.7,34.4
2016-01-28T00:53:00Z,0000380,01000600,0003.07,0001.59,0001.45,0000.46,-000.12,0000.32,0000.41,0000.14,-000.09,25.3,00.0,0634.7,34.4
2016-01-28T00:54:00Z,0000380,01000600,0001.74,0001.77,0001.13,-000.22,0000.18,0000.38,0000.06,0000.21,0000.00,25.3,00.0,0634.7,34.4
2016-01-28T00:55:00Z,0000380,01000600,0002.39,0002.00,0001.32,-000.55,-000.33,0000.22,0000.44,0000.14,0000.46,25.3,00.0,0634.7,34.4
2016-01-28T00:56:00Z,0000380,01000600,0002.20,0002.17,0001.34,-000.45,0000.12,0000.38,0000.06,0000.21,0000.15,25.3,00.0,0634.7,34.4
2016-01-28T00:57:00Z,0000380,41000600,,,,,,,,,,,,0634.8,34.4
2016-01-28T00:58:00Z,0000380,61000600,,,,,,,,,,25.0,00.0,0634.0,34.4
2016-01-28T00:59:00Z,0000380,21000600,,,,,,,,,,25.0,00.0,0634.0,34.4
2016-01-28T01:00:00Z,0000380,21000600,,,,,,,,,,25.0,00.0,0634.0,34.4
2016-01-28T01:01:00Z,0000380,21000600,,,,,,,,,,25.0,00.0,0634.0,34.4
2016-01-28T01:02:00Z,0000380,21000600,,,,,,,,,,25.0,00.0,0634.0,34.4
2016-01-28T01:03:00Z,0000380,61000600,,,,,,,,,,25.0,00.0,0634.0,34.4
2016-01-28T01:04:00Z,0000380,41000600,0003.83,0002.43,0001.38,0000.68,0000.20,0000.40,-000.08,0000.06,0000.00,25.1,00.0,0634.7,34.4
2016-01-28T01:05:00Z,0000380,01000600,0003.43,0002.10,0001.91,0000.07,0000.15,0000.28,0000.05,0000.20,0000.09,25.1,00.0,0634.8,34.4
2016-01-28T01:06:00Z,0000380,01000600,0002.80,0002.92,0001.77,-000.36,0000.40,0000.33,0000.10,0000.21,0000.30,25.2,00.0,0634.7,34.4
2016-01-28T01:07:00Z,0000380,01000600,0002.98,0002.50,0000.83,0000.28,0000.21,0000.27,0000.28,-000.10,-000.03,25.2,00.0,0634.7,34.4
2016-01-28T01:08:00Z,0000380,01000600,0004.22,0002.10,0001.14,0000.70,-000.03,0000.12,0000.26,0000.34,0000.51,25.3,00.0,0634.7,34.4
2016-01-28T01:09:00Z,0000380,01000600,0003.24,0002.48,0001.34,0000.27,0000.25,0000.56,0000.28,0000.18,-000.08,25.3,00.0,0634.7,34.4
2016-01-28T01:10:00Z,0000380,01000600,0003.03,0002.07,0001.54,0000.30,0000.25,0000.08,0000.05,0000.13,0000.37,25.3,00.0,0634.7,34.4
2016-01-28T01:11:00Z,0000380,01000600,0003.56,0002.12,0001.00,0000.45,0000.00,0000.03,0000.22,0000.10,0000.17,25.3,00.0,0634.7,34.4
2016-01-28T01:12:00Z,0000380,01000600,0003.92,0002.60,0001.04,0000.46,0000.63,0000.23,0000.33,0000.28,0000.13,25.3,00.0,0634.8,34.4
2016-01-28T01:13:00Z,0000380,01000600,0003.43,0002.05,0001.70,0000.33,0000.59,0000.17,0000.31,0000.14,0000.01,25.3,00.0,0634.7,34.4
2016-01-28T01:14:00Z,0000380,01000600,0003.16,0002.41,0001.37,-000.03,0000.21,0000.33,0000.03,0000.31,0000.00,25.3,00.0,0634.7,34.4
2016-01-28T01:15:00Z,0000380,01000600,0003.85,0002.31,0001.27,0000.25,0000.38,-000.12,0000.39,0000.15,0000.18,25.3,00.0,0634.7,34.4
2016-01-28T01:16:00Z,0000380,01000600,0001.92,0002.71,0001.70,0000.25,0000.30,0000.56,0000.09,0000.10,0000.10,25.3,00.0,0634.7,34.4
2016-01-28T01:17:00Z,0000380,01000600,0002.82,0002.54,0000.84,-000.10,0000.50,0000.60,0000.12,0000.16,0000.29,25.2,00.0,0634.7,34.4
2016-01-28T01:18:00Z,0000380,01000600,0003.24,0002.17,0001.98,-000.02,0000.28,0000.15,0000.05,0000.07,0000.30,25.2,00.0,0634.7,34.4
2016-01-28T01:19:00Z,0000380,01000600,0002.90,0003.17,0001.60,0000.71,0000.08,0000.23,-000.03,0000.13,0000.07,25.3,00.0,0634.6,34.4
2016-01-28T01:20:00Z,0000380,01000600,0002.12,0002.20,0002.03,-000.15,0000.18,-000.02,0000.36,0000.01,-000.11,25.3,00.0,0634.6,34.4
2016-01-28T01:21:00Z,0000380,01000600,0003.03,0002.02,0001.63,-000.13,0000.00,0000.43,-000.07,0000.21,0000.12,25.3,00.0,0634.6,34.4
2016-01-28T01:22:00Z,0000380,01000600,0003.64,0002.56,0001.07,-000.23,0000.15,0000.50,0000.24,0000.17,0000.00,25.3,00.0,0634.6,34.4
2016-01-28T01:23:00Z,0000380,01000600,0003.48,0001.98,0001.50,0000.25,-000.18,0000.20,0000.22,0000.34,0000.35,25.3,00.0,0634.6,34.4
2016-01-28T01:24:00Z,0000380,01000600,0003.97,0001.38,0001.43,0001.09,0000.20,0000.15,0000.20,0000.04,0000.00,25.3,00.0,0634.6,34.4
2016-01-28T01:25:00Z,0000380,01000600,0003.27,0001.93,0001.00,0000.36,0000.21,-000.07,0000.39,0000.25,0000.53,25.3,00.0,0634.6,34.4
2016-01-28T01:26:00Z,0000380,01000600,0002.72,0002.23,0001.35,-000.18,-000.05,0000.12,0000.07,0000.20,-000.05,25.3,00.0,0634.6,34.4
2016-01-28T01:27:00Z,0000380,01000600,0002.90,0002.77,0001.03,-000.40,0000.12,0000.22,0000.19,0000.23,0000.00,25.3,00.0,0634.6,34.4
2016-01-28T01:28:00Z,0000380,01000600,0001.75,0002.22,0001.67,0000.27,0000.38,0000.37,0000.43,0000.24,0000.36,25.3,00.0,0634.6,34.4
2016-01-28T01:29:00Z,0000380,01000600,0003.36,0002.28,0001.41,0000.25,0000.33,0000.63,0000.13,0000.27,-000.12,25.3,00.0,0634.7,34.4
2016-01-28T01:30:00Z,0000380,01000600,0004.36,0002.48,0001.87,0000.45,0000.13,0000.22,0000.18,0000.10,0000.17,25.3,00.0,0634.7,34.4
2016-01-28T01:31:00Z,0000380,01000600,0002.42,0002.14,0001.52,0000.55,0000.23,0000.43,0000.25,0000.18,0000.41,25.2,00.0,0634.7,34.4
2016-01-28T01:32:00Z,0000380,01000600,0003.10,0002.65,0001.94,0000.41,0000.33,0000.38,0000.09,0000.19,-000.03,25.2,00.0,0634.7,34.4
2016-01-28T01:33:00Z,0000380,01000600,0002.78,0002.58,0001.19,-000.18,0000.28,0000.35,0000.22,0000.18,-000.07,25.2,00.0,0634.7,34.4
2016-01-28T01:34:00Z,0000380,01000600,0003.44,0002.29,0001.19,0000.38,0000.56,-000.05,0000.07,-000.05,0000.23,25.2,00.0,0634.7,34.4
2016-01-28T01:35:00Z,0000380,01000600,0003.01,0002.65,0001.80,0001.04,-000.03,0000.35,0000.05,0000.09,0000.20,25.2,00.0,0634.7,34.4
2016-01-28T01:36:00Z,0000380,01000600,0004.30,0003.22,0001.60,0000.48,0000.58,0000.33,0000.19,0000.34,0000.22,25.3,00.0,0634.7,34.4
2016-01-28T01:37:00Z,0000380,01000600,0003.36,0003.30,0001.20,0000.08,0000.08,-000.08,0000.22,-000.03,0000.06,25.3,00.0,0634.7,34.4
2016-01-28T01:38:00Z,0000380,01000600,0003.64,0002.51,0001.46,-000.03,0000.28,0000.12,0000.18,0000.40,0000.18,25.3,00.0,0634.7,34.4
2016-01-28T01:39:00Z,0000380,01000600,0003.70,0002.73,0001.88,0000.22,0000.31,0000.18,0000.41,0000.14,-000.02,25.3,00.0,0634.7,34.4
2016-01-28T01:40:00Z,0000380,01000600,0003.42,0002.56,0001.57,0000.28,0000.35,0000.38,0000.17,0000.24,0000.39,25.3,00.0,0634.7,34.4
2016-01-28T01:41:00Z,0000380,01000600,0003.91,0002.63,0001.65,0000.25,0000.18,0000.23,0000.20,0000.11,0000.24,25.3,00.0,0634.8,34.4
2016-01-28T01:42:00Z,0000380,01000600,0004.12,0002.48,0000.96,0000.56,0000.53,0000.17,0000.34,0000.30,0000.15,25.3,00.0,0634.8,34.4
2016-01-28T01:43:00Z,0000380,01000600,0003.22,0002.67,0001.07,-000.08,0000.38,0000.10,0000.21,0000.14,0000.16,25.3,00.0,0634.8,34.4
2016-01-28T01:44:00Z,0000380,01000600,0003.57,0003.11,0001.42,0000.81,-000.13,0000.05,0000.09,0000.12,0000.05,25.2,00.0,0634.8,34.4
2016-01-28T01:45:00Z,0000380,01000600,0003.13,0002.76,0001.19,0000.71,0000.10,-000.10,0000.11,0000.26,-000.02,25.2,00.0,0634.8,34.4
2016-01-28T01:46:00Z,0000380,01000600,0003.33,0002.14,0001.55,0000.13,0000.38,0000.17,0000.17,0000.05,0000.08,25.2,00.0,0634.8,34.4
2016-01-28T01:47:00Z,0000380,01000600,0003.12,0002.74,0001.20,0000.99,0000.91,0000.33,0000.46,0000.36,0000.31,25.2,00.0,0634.8,34.4
2016-01-28T01:48:00Z,0000380,01000600,0002.51,0002.58,0001.51,-000.13,-000.18,0000.23,-000.09,0000.05,0000.48,25.2,00.0,0634.8,34.4
2016-01-28T01:49:00Z,0000380,01000600,0003.54,0002.47,0001.77,0000.00,0000.40,0000.25,0000.06,0000.11,-000.13,25.2,00.0,0634.8,34.4
2016-01-28T01:50:00Z,0000380,01000600,0003.37,0002.94,0001.37,-000.41,0000.31,0000.46,0000.26,-000.01,0000.06,25.2,00.0,0634.9,34.4
2016-01-28T01:51:00Z,0000380,01000600,0003.23,0002.72,0001.20,0000.43,0000.07,-000.05,0000.19,0000.19,0000.17,25.2,00.0,0634.8,34.4
2016-01-28T01:52:00Z,0000380,01000600,0002.96,0002.46,0001.26,0000.23,0000.35,0000.03,0000.17,0000.23,0000.24,25.3,00.0,0634.9,34.4
2016-01-28T01:53:00Z,0000380,01000600,0004.38,0003.12,0001.37,0000.00,-000.25,0000.25,0000.15,0000.19,0000.23,25.3,00.0,0634.9,34.4
2016-01-28T01:54:00Z,0000380,01000600,0002.88,0003.10,0001.61,0000.15,-000.08,0000.33,0000.10,0000.20,-000.11,25.3,00.0,0634.9,34.4
2016-01-28T01:55:00Z,0000380,01000600,0004.80,0002.19,0001.54,0000.81,-000.07,0000.20,0000.40,0000.21,0000.40,25.3,00.0,0634.9,34.4
2016-01-28T01:56:00Z,0000380,01000600,0002.82,0002.83,0002.03,0000.17,0000.36,0000.55,0000.43,0000.17,0000.16,25.3,00.0,0634.9,34.4
2016-01-28T01:57:00Z,0000380,41000600,,,,,,,,,,,,0634.8,34.4
2016-01-28T01:58:00Z,0000380,61000600,,,,,,,,,,25.0,00.0,0634.2,34.4
2016-01-28T01:59:00Z,0000380,21000600,,,,,,,,,,25.0,00.0,0634.1,34.4
2016-01-28T02:00:00Z,0000380,21000600,,,,,,,,,,25.0,00.0,0634.1,34.4
2016-01-28T02:01:00Z,0000380,21000600,,,,,,,,,,25.0,00.0,0634.1,34.4
2016-01-28T02:02:00Z,0000380,21000600,,,,,,,,,,25.0,00.0,0634.2,34.4
2016-01-28T02:03:00Z,0000380,61000600,,,,,,,,,,25.0,00.0,0634.2,34.4
2016-01-28T02:04:00Z,0000380,41000600,0003.22,0002.19,0001.78,-000.07,0000.18,0000.10,0000.02,0000.12,-000.00,25.0,00.0,0634.9,34.4
2016-01-28T02:05:00Z,0000380,01000600,0003.33,0002.83,0001.69,-000.17,0000.36,-000.07,0000.14,0000.16,0000.12,25.1,00.0,0634.9,34.4
2016-01-28T02:06:00Z,0000380,01000600,0003.26,0002.71,0001.62,0000.13,0000.43,0000.05,0000.25,0000.12,0000.25,25.1,00.0,0634.9,34.4
2016-01-28T02:07:00Z,0000380,01000600,0004.34,0003.09,0001.68,-000.12,0000.13,0000.23,0000.23,0000.18,0000.00,25.1,00.0,0634.9,34.4
2016-01-28T02:08:00Z,0000380,01000600,0003.14,0002.51,0001.57,-000.18,0000.56,0000.17,0000.09,0000.25,0000.36,25.2,00.0,0634.9,34.4
2016-01-28T02:09:00Z,0000380,01000600,0003.42,0002.52,0001.36,0000.71,0000.74,-000.17,0000.32,0000.22,0000.29,25.2,00.0,0634.9,34.4
2016-01-28T02:10:00Z,0000380,01000600,0003.73,0003.01,0001.79,0000.17,0000.68,0000.46,0000.14,0000.16,-000.07,25.3,00.0,0634.9,34.4
2016-01-28T02:11:00Z,0000380,01000600,0003.14,0002.61,0002.33,0000.68,0000.88,0000.46,0000.37,0000.25,0000.21,25.3,00.0,0634.9,34.4
2016-01-28T02:12:00Z,0000380,01000600,0003.63,0002.68,0002.18,-000.41,0000.48,0000.25,0000.39,0000.38,0000.28,25.3,00.0,0634.9,34.4
2016-01-28T02:13:00Z,0000380,01000600,0004.20,0002.45,0001.92,0000.27,0000.88,-000.22,0000.24,0000.29,0000.14,25.3,00.0,0634.9,34.4
2016-01-28T02:14:00Z,0000380,01000600,0004.50,0002.25,0002.04,-000.25,0000.71,0000.10,0000.24,0000.13,0000.28,25.3,00.0,0635.0,34.4
2016-01-28T02:15:00Z,0000380,01000600,0003.15,0002.75,0001.75,-000.33,0000.48,0000.45,0000.32,0000.28,-000.16,25.2,00.0,0635.0,34.4
2016-01-28T02:16:00Z,0000380,01000600,0003.48,0002.97,0002.14,0000.40,0000.38,0000.41,0000.35,0000.25,0000.18,25.2,00.0,0635.0,34.4
2016-01-28T02:17:00Z,0000380,01000600,0003.25,0002.73,0001.91,-000.12,0000.84,0000.18,0000.23,0000.24,0000.40,25.2,00.0,0635.0,34.4
2016-01-28T02:18:00Z,0000380,01000600,0003.69,0002.69,0002.03,0000.17,0000.28,0000.23,-000.03,0000.20,0000.22,25.2,00.0,0635.0,34.4
2016-01-28T02:19:00Z,0000380,01000600,0002.59,0002.27,0001.90,0000.05,0000.07,0000.25,0000.30,-000.17,-000.05,25.2,00.0,0635.0,34.4
2016-01-28T02:20:00Z,0000380,01000600,0004.26,0001.78,0001.49,0000.27,0000.12,0000.00,0000.32,0000.25,0000.27,25.2,00.0,0635.0,34.4
2016-01-28T02:21:00Z,0000380,01000600,0003.33,0002.54,0001.34,0000.35,0000.23,-000.35,-000.12,0000.12,0000.15,25.2,00.0,0635.0,34.4
2016-01-28T02:22:00Z,0000380,01000600,0003.76,0002.57,0002.10,0000.83,0000.30,0000.53,0000.32,0000.20,0000.17,25.3,00.0,0635.0,34.4
2016-01-28T02:23:00Z,0000380,01000600,0003.68,0002.29,0002.08,-000.17,0000.12,0000.28,0000.05,0000.31,0000.11,25.3,00.0,0635.0,34.4
2016-01-28T02:24:00Z,0000380,01000600,0003.70,0002.92,0001.96,0000.66,0000.64,0000.12,0000.28,0000.05,-000.07,25.4,00.0,0635.0,34.4
2016-01-28T02:25:00Z,0000380,01000600,0004.80,0003.05,0002.00,-000.12,0000.58,0000.30,0000.31,0000.41,0000.52,25.4,00.0,0635.0,34.4
2016-01-28T02:26:00Z,0000380,01000600,0003.87,0002.30,0002.06,0000.56,0000.58,0000.13,0000.07,0000.06,-000.15,25.5,00.0,0635.0,34.4
2016-01-28T02:27:00Z,0000380,01000600,0003.96,0002.44,0001.52,-000.40,0000.58,0000.15,0000.44,0000.50,0000.63,25.5,00.0,0635.1,34.4
2016-01-28T02:28:00Z,0000380,01000600,0003.38,0003.15,0001.40,-000.27,0000.73,-000.20,0000.29,0000.17,0000.01,25.5,00.0,0635.1,34.4
2016-01-28T02:29:00Z,0000380,01000600,0004.37,0002.71,0001.83,0000.65,0000.73,0000.32,0000.52,0000.26,0000.31,25.5,00.0,0635.1,34.4
2016-01-28T02:30:00Z,0000380,01000600,0002.58,0002.49,0001.78,-000.03,0000.36,0000.10,0000.10,0000.18,0000.23,25.4,00.0,0635.1,34.4
2016-01-28T02:31:00Z,0000380,01000600,0004.40,0003.23,0001.82,-000.40,0000.38,0000.25,0000.26,0000.15,0000.11,25.4,00.0,0635.1,34.4
2016-01-28T02:32:00Z,0000380,01000600,0004.27,0002.53,0001.93,0000.20,0000.35,0000.27,0000.32,0000.33,0000.16,25.3,00.0,0635.2,34.4
2016-01-28T02:33:00Z,0000380,01000600,0003.14,0003.04,0001.83,-000.60,0000.40,0000.22,0000.09,0000.10,0000.16,25.3,00.0,0635.1,34.4
2016-01-28T02:34:00Z,0000380,01000600,0002.95,0002.66,0001.85,-000.08,0000.35,0000.15,0000.10,0000.16,0000.02,25.3,00.0,0635.2,34.4
2016-01-28T02:35:00Z,0000380,01000600,0003.88,0002.50,0001.67,-000.07,0000.88,0000.61,0000.27,0000.21,0000.32,25.4,00.0,0635.2,34.4
2016-01-28T02:36:00Z,0000380,01000600,0004.56,0002.60,0001.97,0000.32,0000.46,0000.40,0000.48,0000.35,0000.28,25.4,00.0,0635.1,34.4
2016-01-28T02:37:00Z,0000380,01000600,0004.43,0002.22,0002.03,0000.03,0000.23,0000.35,-000.04,0000.09,0000.10,25.4,00.0,0635.1,34.4
2016-01-28T02:38:00Z,0000380,01000600,0003.92,0002.79,0002.64,-000.30,0000.71,0000.75,0000.29,0000.38,0000.30,25.4,00.0,0635.1,34.4
2016-01-28T02:39:00Z,0000380,01000600,0004.25,0003.27,0002.01,-000.56,0000.54,0000.32,0000.32,0000.25,-000.21,25.4,00.0,0635.2,34.4
2016-01-28T02:40:00Z,0000380,01000600,0003.47,0003.10,0001.81,0000.08,0000.41,0000.30,0000.43,0000.20,0000.51,25.3,00.0,0635.2,34.4
2016-01-28T02:41:00Z,0000380,01000600,0004.49,0002.72,0001.65,-000.20,0000.54,-000.13,0000.07,0000.30,0000.11,25.3,00.0,0635.2,34.4
2016-01-28T02:42:00Z,0000380,01000600,0004.20,0002.65,0001.99,-000.40,0000.21,0000.03,0000.38,0000.21,0000.30,25.3,00.0,0635.1,34.4
2016-01-28T02:43:00Z,0000380,01000600,0003.22,0002.82,0002.07,-000.53,0000.45,0000.15,0000.15,0000.17,0000.15,25.3,00.0,0635.1,34.4
2016-01-28T02:44:00Z,0000380,01000600,0003.97,0002.96,0001.72,0000.12,0000.15,0000.58,0000.43,0000.39,0000.04,25.3,00.0,0635.1,34.4
2016-01-28T02:45:00Z,0000380,01000600,0004.73,0003.30,0002.28,0000.23,0000.08,0000.36,0000.23,0000.14,0000.26,25.2,00.0,0635.2,34.3
2016-01-28T02:46:00Z,0000380,01000600,0004.92,0003.17,0002.04,-000.25,0000.66,0000.51,0000.18,0000.13,0000.19,25.2,00.0,0635.2,34.3
2016-01-28T02:47:00Z,0000380,01000600,0004.39,0002.21,0002.08,0000.22,0000.61,0000.56,0000.20,0000.20,0000.14,25.2,00.0,0635.1,34.3
2016-01-28T02:48:00Z,0000380,01000600,0003.76,0002.05,0002.12,0000.30,0000.49,0000.18,0000.21,0000.17,0000.03,25.2,00.0,0635.2,34.3
2016-01-28T02:49:00Z,0000380,01000600,0003.97,0002.58,0002.05,-000.55,0000.02,0000.30,0000.07,0000.14,0000.30,25.2,00.0,0635.1,34.3
2016-01-28T02:50:00Z,0000380,01000600,0004.40,0003.59,0001.86,-000.10,0000.74,0000.40,0000.12,0000.25,0000.29,25.2,00.0,0635.1,34.3
2016-01-28T02:51:00Z,0000380,01000600,0004.43,0002.22,0002.13,0000.07,0000.79,0000.28,0000.43,0000.09,0000.02,25.2,00.0,0635.1,34.3
2016-01-28T02:52:00Z,0000380,01000600,0004.15,0002.72,0002.05,-000.23,0000.56,0000.43,0000.09,0000.30,0000.23,25.3,00.0,0635.1,34.3
2016-01-28T02:53:00Z,0000380,01000600,0003.89,0002.61,0001.78,0000.58,0000.15,0000.45,0000.48,0000.39,0000.36,25.3,00.0,0635.1,34.3
2016-01-28T02:54:00Z,0000380,01000600,0004.10,0003.11,0001.76,-000.38,0000.31,0000.17,0000.10,0000.28,0000.25,25.3,00.0,0635.1,34.3
2016-01-28T02:55:00Z,0000380,01000600,0005.41,0003.46,0002.05,0000.10,0000.23,0000.36,0000.53,0000.30,0000.02,25.2,00.0,0635.1,34.3
2016-01-28T02:56:00Z,0000380,01000600,0004.27,0002.43,0002.20,0000.99,0000.69,-000.17,0000.42,0000.37,0000.27,25.2,00.0,0635.2,34.3
2016-01-28T02:57:00Z,0000380,41000600,,,,,,,,,,,,0635.1,34.3
2016-01-28T02:58:00Z,0000380,61000600,,,,,,,,,,25.0,00.0,0634.4,34.3
2016-01-28T02:59:00Z,0000380,21000600,,,,,,,,,,25.0,00.0,0634.4,34.3
2016-01-28T03:00:00Z,0000380,21000600,,,,,,,,,,25.0,00.0,0634.4,34.3
2016-01-28T03:01:00Z,0000380,21000600,,,,,,,,,,24.9,00.0,0634.4,34.3
2016-01-28T03:02:00Z,0000380,21000600,,,,,,,,,,24.8,00.0,0634.4,34.3
2016-01-28T03:03:00Z,0000380,61000600,,,,,,,,,,24.9,00.0,0634.4,34.3
2016-01-28T03:04:00Z,0000380,41000600,0005.29,0002.84,0001.57,0001.14,0000.35,0000.22,0000.42,0000.39,0000.47,25.0,00.0,0635.1,34.3
2016-01-28T03:05:00Z,0000380,01000600,0004.44,0003.03,0001.77,0000.31,0000.30,0000.07,0000.14,0000.06,0000.09,25.1,00.0,0635.2,34.3
2016-01-28T03:06:00Z,0000380,01000600,0004.77,0003.30,0001.84,0000.56,0000.12,0000.45,0000.15,0000.29,-000.00,25.1,00.0,0635.2,34.3
2016-01-28T03:07:00Z,0000380,01000600,0004.48,0003.04,0002.25,0000.94,0000.02,-000.17,0000.48,0000.22,0000.39,25.2,00.0,0635.2,34.3
2016-01-28T03:08:00Z,0000380,01000600,0005.54,0003.27,0001.96,0000.89,0000.07,0000.40,0000.36,0000.20,0000.07,25.2,00.0,0635.2,34.3
2016-01-28T03:09:00Z,0000380,01000600,0004.39,0002.77,0001.97,0000.80,0000.58,-000.02,0000.25,0000.55,0000.49,25.2,00.0,0635.2,34.3
2016-01-28T03:10:00Z,0000380,01000600,0005.07,0002.46,0001.70,-000.02,0000.35,0000.27,0000.33,0000.18,0000.18,25.2,00.0,0635.2,34.3
2016-01-28T03:11:00Z,0000380,01000600,0004.08,0003.11,0002.18,-000.27,0000.15,0000.27,0000.34,0000.31,0000.47,25.2,00.0,0635.2,34.3
2016-01-28T03:12:00Z,0000380,01000600,0004.60,0002.26,0001.86,0000.45,0000.41,0000.15,0000.43,0000.29,-000.16,25.1,00.0,0635.2,34.3